Regional Weather Roundup
Issued by NWS

Home | Current Version | Previous Version | Graphics & Text | Print | Product List | Glossary On
Versions: 1 2 3 4 5 6 7 8 9 10 11 12 13 14 15 16 17 18 19 20 21 22 23 24 25 26 27 28 29 30 31 32 33 34 35 36 37 38 39 40 41 42 43 44 45 46 47 48 49 50
223
ASUS43 KOAX 271902
RWRNE

WEATHER ROUNDUP FOR NEBRASKA
NATIONAL WEATHER SERVICE OMAHA NE
200 PM CDT THU JUL 27 2017

NOTES: SATELLITE DATA IS BEING USED TO AUGMENT CLOUD COVER ABOVE
       12000 FEET.
       "FAIR" INDICATES FEW OR NO CLOUDS BELOW 12,000 FEET WITH NO
       SIGNIFICANT WEATHER AND/OR OBSTRUCTIONS TO VISIBILITY.


NEZ001>004-019>022-054>056-272000-
NEBRASKA PANHANDLE

CITY           SKY/WX    TMP DP  RH WIND       PRES   REMARKS
SCOTTSBLUFF    LGT RAIN  83  64  52 SE18      30.13F
ALLIANCE       MOSUNNY   80  60  50 SE16G24   30.17F
CHADRON        CLOUDY    77  60  55 SE20G25   30.11F THUNDER
GORDON         CLOUDY    71  56  57 E10       30.18F
KIMBALL        PTSUNNY   82  61  49 S14G20    30.20F
SIDNEY         PTSUNNY   80  62  54 S13G21    30.19F
$$

NEZ057>060-069>072-079>082-272000-
SOUTHWEST NEBRASKA

CITY           SKY/WX    TMP DP  RH WIND       PRES   REMARKS
NORTH PLATTE   SUNNY     84  50  30 S9        30.13F
IMPERIAL       PTSUNNY   81  61  50 E7        30.16F
LEXINGTON      SUNNY     79  59  50 E5        30.13F
MCCOOK         MOSUNNY   82  63  52 E12       30.13F
OGALLALA       MOSUNNY   79  65  61 SE7       30.17F
$$

NEZ005>010-023>029-035>040-094-272000-
NORTH CENTRAL NEBRASKA

CITY           SKY/WX    TMP DP  RH WIND       PRES   REMARKS
VALENTINE      CLOUDY    82  52  35 SE10      30.15F
AINSWORTH      CLOUDY    79  58  49 E8        30.16S
BROKEN BOW     SUNNY     82  57  42 E9        30.13F
O`NEILL        PTSUNNY   77  61  57 SE3       30.14S
ORD            CLOUDY    82  55  39 N8        30.09F
THEDFORD       CLOUDY    83  51  33 E5        30.16F
$$

NEZ041-046>049-061>064-073>077-083>087-272000-
SOUTH CENTRAL NEBRASKA

CITY           SKY/WX    TMP DP  RH WIND       PRES   REMARKS
GRAND ISLAND   SUNNY     80  61  52 NE9       30.10F
AURORA         SUNNY     78  64  60 N7        30.09F
HASTINGS       CLOUDY    79  63  57 NE9       30.10F
HEBRON         MOSUNNY   82  66  58 N8        30.05F
HOLDREGE       CLOUDY    77  60  55 NE3       30.12F
KEARNEY        CLOUDY    79  62  56 E9        30.11F
YORK           SUNNY     77  64  65 N12G18    30.08F
$$

NEZ011>018-030>034-042>045-272000-
NORTHEAST NEBRASKA

CITY           SKY/WX    TMP DP  RH WIND       PRES   REMARKS
NORFOLK        MOSUNNY   81  59  47 NE8       30.09F
ALBION         CLOUDY    80  63  57 NE8       30.10F
BLAIR          MOSUNNY   81  64  55 N12       30.05F
COLUMBUS       MOSUNNY   80  64  58 NE8       30.08F
FREMONT        PTSUNNY   80  62  54 N7        30.06F
TEKAMAH        MOSUNNY   83  63  50 N9        30.05F
WAYNE          MOSUNNY   80  64  56 E8        30.08F
$$

NEZ050>053-065>068-078-088>093-272000-
SOUTHEAST NEBRASKA

CITY           SKY/WX    TMP DP  RH WIND       PRES   REMARKS
LINCOLN        MOSUNNY   83  65  54 NE14      30.05F
OMAHA EPPLEY   MOSUNNY   85  63  47 NE10      30.04F
BEATRICE       CLOUDY    81  69  65 NE9       30.04F
FALLS CITY     CLOUDY    82  70  66 N10       29.99F
NEBRASKA CITY  MOSUNNY   82  70  67 NE9       30.03S
$$

NEZ044-045-051>053-067-272000-
OMAHA AREA

CITY           SKY/WX    TMP DP  RH WIND       PRES   REMARKS
OMAHA EPPLEY   MOSUNNY   85  63  47 NE10      30.04F
BLAIR          MOSUNNY   81  64  55 N12       30.05F
FREMONT        PTSUNNY   80  62  54 N7        30.06F
MILLARD        PTSUNNY   83  66  54 N7        30.04F
OFFUTT AFB     SUNNY     83  63  50 NE10      30.03F
WAHOO          MOCLDY    80  64  59 NE9       30.06F
$$




USA.gov is the U.S. government's official web portal to all federal, state and local government web resources and services.